Powrót do katalogu

SL-14 DEB

AktywnyPO
NORAD 45346·DEBRIS·🇷🇺 Russia

Wystrzelony Aug 15, 1991 z Plesetsk Cosmodrome

Loading…

Następne Przeloty (najbliższe 24 godziny)

TLE

ŚwieżeSource: Space-Track

Epoka: Sep 14, 2026, 03:38 UTC

1 45346U 91056CF  26257.15194227  .00002553  00000-0  46743-2 0  9997
2 45346  82.6316  59.7023 0070441 323.6813  35.9551 13.39013266317360

Śledź SL-14 DEB w czasie rzeczywistym z AllMySat

Download on the App Store